Location: Newark
(50.8964°N, 1.4048°W)
Time: 23:15:35
(UTC+00:00)

N. Korean satellite - Pass Details

Date: 02 February 2020
Orbit: 456 x 505 km, 97.2° (Epoch: 19 February)

Event Time Altitude Azimuth Distance (km) Brightness Sun altitude
Rises 06:57:31 0° 3° (N) 2,564 10.1 -7.2°
Reaches altitude 10° 06:59:50 10° 349° (N) 1,687 9.0 -6.9°
Maximum altitude 07:02:49 25° 294° (WNW) 1,046 7.7 -6.4°
Drops below altitude 10° 07:05:49 10° 239° (WSW) 1,697 9.0 -6.0°
Sets 07:08:09 0° 225° (SW) 2,583 10.0 -5.6°
